[[{"header":{"parameterUnit":"m.s-1","parameterCategory":1,"la1":30.2991,"la2":30.254,"lo1":-89.0895,"lo2":-89.0444,"dy":0.0017,"dx":0.0017,"nx":28,"ny":28,"refTime":"2025-09-07T09:00:00:Z","depth":0,"parameterNumber":2,"parameterNumberName":"U-component_of_WINDS"},"data":[0,0,0,0,0,0,0,0,0,0,0,0,0,0,0,0,0,0,0,0,0,0,0,0,0,0,0,0,0,0,0,0,0,0,0,0,0,0,0,0,0,0,0,0,0,0,0,0,0,0,0,0,0,0,0,0,0,0,-1.3111,-1.311,0,-1.3037,-1.3036,-1.3035,-1.2999,-1.2999,-1.2999,-1.2999,-1.2921,-1.2919,-1.2917,0,0,0,0,0,0,0,0,0,0,0,0,0,-1.3221,-1.3219,-1.3111,-1.311,-1.3109,-1.3037,-1.3036,-1.3035,-1.2999,-1.2999,-1.2999,-1.2999,-1.2922,-1.292,-1.2917,0,0,0,0,0,0,0,0,0,0,0,0,0,-1.3163,-1.3219,-1.3111,-1.3083,-1.308,-1.3037,-1.3036,-1.3035,-1.2999,-1.2999,-1.2999,-1.2999,-1.2923,-1.292,-1.2917,-1.2896,0,0,-1.2907,-1.2906,0,0,0,0,0,0,0,0,-1.3166,-1.3159,-1.3088,-1.3085,-1.3081,-1.3027,-1.3046,-1.2988,-1.2999,-1.303,-1.2999,-1.2999,-1.2956,-1.2951,-1.2936,-1.2893,-1.2889,-1.2907,-1.2905,-1.2903,-1.2903,0,0,0,0,0,0,0,-1.317,-1.3162,-1.3082,-1.3087,-1.3083,-1.3073,-1.3065,-1.3035,-1.2994,-1.3027,-1.3024,-1.3016,-1.2955,-1.294,-1.2934,-1.2888,-1.2907,-1.2904,-1.2902,-1.2901,-1.2824,-1.2824,0,0,0,0,0,0,-1.3179,-1.3165,-1.3084,-1.3079,-1.3125,-1.3071,-1.3062,-1.3044,-1.2994,-1.2986,-1.3016,-1.3015,-1.2945,-1.2938,-1.2931,-1.2904,-1.2904,-1.2901,-1.2899,-1.2824,-1.2824,-1.2824,0,0,0,0,0,0,-1.3182,-1.3172,-1.3087,-1.3122,-1.311,-1.3069,-1.305,-1.3043,-1.3028,-1.2986,-1.2978,-1.3008,-1.2945,-1.2936,-1.2905,-1.2901,-1.2899,-1.2896,-1.2825,-1.2824,-1.2824,-1.285,0,0,0,0,0,0,-1.3185,-1.3173,-1.3165,-1.3122,-1.3108,-1.3063,-1.305,-1.3041,-1.3023,-1.302,-1.2976,-1.2969,-1.2944,-1.291,-1.2902,-1.2897,-1.2894,-1.2825,-1.2824,-1.2824,-1.2849,-1.2851,-1.2852,0,0,0,0,0,-1.3189,-1.3175,-1.3165,-1.3156,-1.3098,-1.3063,-1.3055,-1.3027,-1.3023,-1.3014,-1.2987,-1.2971,-1.2903,-1.2908,-1.2898,-1.2892,-1.2825,-1.2825,-1.2824,-1.2849,-1.2851,-1.2852,0,0,0,0,0,0,-1.3219,-1.3169,-1.3157,-1.3129,-1.3101,-1.3057,-1.3045,-1.3029,-1.3001,-1.2999,-1.2965,-1.2956,-1.2928,-1.2907,-1.2913,-1.2869,-1.2862,-1.286,-1.2884,-1.2886,-1.2887,-1.2892,-1.2891,0,0,0,0,0,-1.3222,-1.3198,-1.3156,-1.3135,-1.3121,-1.3086,-1.307,-1.305,-1.3019,-1.3007,-1.2977,-1.2947,-1.2919,-1.2901,-1.2873,-1.2846,-1.2836,-1.2837,-1.2839,-1.284,-1.2838,-1.2823,-1.2823,-1.2823,-1.2823,-1.2823,0,0,-1.3229,-1.3199,-1.3185,-1.314,-1.3116,-1.3092,-1.3076,-1.3051,-1.3032,-1.3002,-1.2972,-1.295,-1.2914,-1.2885,-1.2871,-1.2867,-1.2836,-1.2839,-1.2841,-1.2838,-1.2822,-1.2822,-1.2822,-1.2823,-1.2823,-1.2823,0,0,-1.3228,-1.3203,-1.3183,-1.3159,-1.3123,-1.3099,-1.3095,-1.3053,-1.3037,-1.3007,-1.2984,-1.2961,-1.2914,-1.2889,-1.287,-1.2861,-1.2845,-1.2853,-1.286,-1.2845,-1.2845,-1.2845,-1.2842,-1.2841,-1.2852,-1.2852,-1.2852,0,-1.3241,-1.3204,-1.3175,-1.3151,-1.3132,-1.3105,-1.3084,-1.3062,-1.3018,-1.3005,-1.3001,-1.2941,-1.2915,-1.288,-1.2878,-1.2864,-1.2857,-1.2858,-1.2847,-1.2847,-1.2846,-1.2843,-1.2842,-1.2853,-1.2853,-1.2853,-1.2853,0,-1.3221,-1.3195,-1.3184,-1.3143,-1.3122,-1.31,-1.3068,-1.305,-1.3033,-1.301,-1.2979,-1.2947,-1.2912,-1.2903,-1.2885,-1.2866,-1.2864,-1.2854,-1.2846,-1.2848,-1.2844,-1.2843,-1.2855,-1.2854,-1.2854,-1.2854,0,0,-1.3236,-1.318,-1.3176,-1.3158,-1.3116,-1.3095,-1.3072,-1.3038,-1.3024,-1.2995,-1.2974,-1.2935,-1.2926,-1.2905,-1.2884,-1.2872,-1.2867,-1.2863,-1.2862,-1.2865,-1.2843,-1.2851,-1.285,-1.2856,-1.2856,-1.2855,-1.2846,0,-1.323,-1.3187,-1.3161,-1.3129,-1.3105,-1.308,-1.3059,-1.3031,-1.3009,-1.2986,-1.2961,-1.2934,-1.2924,-1.2911,-1.2897,-1.287,-1.2862,-1.2871,-1.2836,-1.2835,-1.2846,-1.2848,-1.2856,-1.2849,-1.2845,-1.2844,-1.2844,0,-1.3216,-1.3189,-1.3155,-1.3116,-1.3105,-1.3087,-1.3054,-1.3032,-1.3,-1.2985,-1.2962,-1.2941,-1.2916,-1.2911,-1.2874,-1.2881,-1.2865,-1.285,-1.2849,-1.2845,-1.284,-1.2843,-1.2846,-1.2845,-1.2842,-1.2842,-1.2842,0,-1.3231,-1.3185,-1.3159,-1.3143,-1.3097,-1.3086,-1.3066,-1.3034,-1.3015,-1.2987,-1.2974,-1.2943,-1.2926,-1.2902,-1.2874,-1.2873,-1.2841,-1.2833,-1.2827,-1.2828,-1.2821,-1.2822,-1.2821,-1.2812,-1.2812,-1.2812,-1.2812,0,-1.3226,-1.3207,-1.3165,-1.3149,-1.3126,-1.3096,-1.3074,-1.3052,-1.3023,-1.3002,-1.2978,-1.2958,-1.2923,-1.2899,-1.2877,-1.285,-1.2843,-1.283,-1.2824,-1.2832,-1.2833,-1.2821,-1.282,-1.2811,-1.2811,-1.2812,-1.2812,0,-1.3239,-1.321,-1.318,-1.3139,-1.3128,-1.3113,-1.3078,-1.3061,-1.3038,-1.3012,-1.3004,-1.2968,-1.2939,-1.2909,-1.2869,-1.2854,-1.2828,-1.282,-1.2839,-1.2836,-1.2832,-1.2833,-1.2823,-1.282,-1.2813,-1.2813,-1.2813,0,-1.3237,-1.3222,-1.318,-1.3164,-1.3145,-1.312,-1.3102,-1.3072,-1.3053,-1.3016,-1.3003,-1.2972,-1.2946,-1.2901,-1.2871,-1.284,-1.2831,-1.283,-1.2827,-1.2835,-1.2831,-1.2833,-1.2831,-1.2831,-1.2831,-1.2832,-1.2832,0,-1.3238,-1.3225,-1.32,-1.3169,-1.3148,-1.3122,-1.3096,-1.3084,-1.3049,-1.303,-1.3,-1.298,-1.2939,-1.2909,-1.2875,-1.2854,-1.2837,-1.2833,-1.283,-1.2838,-1.2849,-1.2843,-1.2842,-1.2833,-1.2833,-1.2833,-1.2833,-1.2833,-1.3244,-1.3229,-1.3197,-1.3169,-1.3146,-1.3122,-1.3105,-1.308,-1.3055,-1.302,-1.3004,-1.2974,-1.2942,-1.2895,-1.2875,-1.2851,-1.2846,-1.2842,-1.2841,-1.284,-1.2842,-1.2854,-1.2845,-1.2845,-1.2845,-1.2845,-1.2845,0,-1.3243,-1.3222,-1.3197,-1.3161,-1.3139,-1.3126,-1.3096,-1.3078,-1.3053,-1.3025,-1.3,-1.2966,-1.2936,-1.2905,-1.2873,-1.286,-1.2852,-1.2853,-1.2854,-1.2849,-1.2848,-1.2854,-1.2861,-1.2861,-1.2861,-1.2861,-1.2861,-1.2861,-1.324,-1.3214,-1.3197,-1.316,-1.3138,-1.3109,-1.3093,-1.3071,-1.3049,-1.3012,-1.2988,-1.2968,-1.2938,-1.2905,-1.2877,-1.2868,-1.2858,-1.2862,-1.2851,-1.285,-1.2849,-1.2848,-1.2853,-1.286,-1.286,-1.2854,-1.2854,-1.2854]},{"header":{"parameterUnit":"m.s-1","parameterCategory":1,"la1":30.2991,"la2":30.254,"lo1":-89.0895,"lo2":-89.0444,"dy":0.0017,"dx":0.0017,"nx":28,"ny":28,"refTime":"2025-09-07T09:00:00:Z","depth":0,"parameterNumber":3,"parameterNumberName":"V-component_of_WINDS"},"data":[0,0,0,0,0,0,0,0,0,0,0,0,0,0,0,0,0,0,0,0,0,0,0,0,0,0,0,0,0,0,0,0,0,0,0,0,0,0,0,0,0,0,0,0,0,0,0,0,0,0,0,0,0,0,0,0,0,0,-0.9545,-0.9544,0,-0.9524,-0.9524,-0.9524,-0.9514,-0.9514,-0.9514,-0.9514,-0.9492,-0.9491,-0.9491,0,0,0,0,0,0,0,0,0,0,0,0,0,-0.9576,-0.9575,-0.9545,-0.9544,-0.9544,-0.9524,-0.9524,-0.9524,-0.9514,-0.9514,-0.9514,-0.9514,-0.9492,-0.9491,-0.9491,0,0,0,0,0,0,0,0,0,0,0,0,0,-0.9559,-0.9575,-0.9545,-0.9537,-0.9536,-0.9524,-0.9524,-0.9524,-0.9514,-0.9514,-0.9514,-0.9514,-0.9492,-0.9491,-0.949,-0.9485,0,0,-0.9488,-0.9487,0,0,0,0,0,0,0,0,-0.956,-0.9558,-0.9538,-0.9537,-0.9536,-0.9522,-0.9527,-0.9511,-0.9514,-0.9522,-0.9514,-0.9514,-0.9502,-0.95,-0.9496,-0.9484,-0.9483,-0.9488,-0.9487,-0.9487,-0.9487,0,0,0,0,0,0,0,-0.9562,-0.9559,-0.9537,-0.9538,-0.9537,-0.9535,-0.9532,-0.9524,-0.9512,-0.9521,-0.952,-0.9518,-0.9501,-0.9497,-0.9495,-0.9483,-0.9488,-0.9487,-0.9486,-0.9486,-0.9468,-0.9468,0,0,0,0,0,0,-0.9564,-0.956,-0.9537,-0.9536,-0.9549,-0.9534,-0.9531,-0.9526,-0.9512,-0.951,-0.9518,-0.9518,-0.9498,-0.9497,-0.9495,-0.9489,-0.9487,-0.9486,-0.9485,-0.9468,-0.9468,-0.9468,0,0,0,0,0,0,-0.9565,-0.9562,-0.9538,-0.9548,-0.9545,-0.9533,-0.9528,-0.9526,-0.9522,-0.951,-0.9508,-0.9516,-0.9498,-0.9496,-0.9488,-0.9488,-0.9486,-0.9485,-0.9468,-0.9468,-0.9468,-0.9478,0,0,0,0,0,0,-0.9566,-0.9562,-0.956,-0.9548,-0.9544,-0.9532,-0.9528,-0.9525,-0.952,-0.952,-0.9507,-0.9505,-0.9498,-0.949,-0.9487,-0.9487,-0.9484,-0.9468,-0.9468,-0.9468,-0.9477,-0.9478,-0.9479,0,0,0,0,0,-0.9567,-0.9562,-0.956,-0.9557,-0.9541,-0.9532,-0.9529,-0.9522,-0.952,-0.9518,-0.9511,-0.9506,-0.9489,-0.9489,-0.9486,-0.9486,-0.9468,-0.9468,-0.9468,-0.9477,-0.9478,-0.9479,0,0,0,0,0,0,-0.9573,-0.956,-0.9557,-0.9549,-0.9542,-0.953,-0.9526,-0.9522,-0.9515,-0.9514,-0.9505,-0.9502,-0.9496,-0.949,-0.949,-0.9481,-0.9478,-0.9478,-0.9486,-0.9486,-0.9487,-0.9489,-0.9483,0,0,0,0,0,-0.9574,-0.9567,-0.9556,-0.955,-0.9547,-0.9538,-0.9533,-0.9528,-0.952,-0.9517,-0.9509,-0.9501,-0.9494,-0.949,-0.9483,-0.9477,-0.9475,-0.9475,-0.9476,-0.9477,-0.9476,-0.9475,-0.9476,-0.9469,-0.9469,-0.9469,0,0,-0.9574,-0.9567,-0.9563,-0.9551,-0.9545,-0.954,-0.9535,-0.9528,-0.9524,-0.9515,-0.9508,-0.9503,-0.9494,-0.9487,-0.9484,-0.9482,-0.9478,-0.9477,-0.9477,-0.9477,-0.9475,-0.9476,-0.9477,-0.9469,-0.9469,-0.9469,0,0,-0.9573,-0.9566,-0.9561,-0.9556,-0.9547,-0.9541,-0.954,-0.953,-0.9526,-0.9519,-0.9513,-0.9509,-0.9496,-0.9491,-0.9487,-0.9487,-0.9482,-0.9485,-0.9488,-0.9487,-0.9488,-0.9488,-0.949,-0.9491,-0.9485,-0.9485,-0.9485,0,-0.9575,-0.9566,-0.9559,-0.9554,-0.955,-0.9543,-0.9539,-0.9533,-0.9523,-0.952,-0.9518,-0.9505,-0.9498,-0.9492,-0.9492,-0.9488,-0.9488,-0.9486,-0.9488,-0.9489,-0.9489,-0.9491,-0.9491,-0.9485,-0.9485,-0.9485,-0.9485,0,-0.957,-0.9564,-0.9561,-0.9553,-0.9548,-0.9543,-0.9536,-0.9533,-0.9529,-0.9524,-0.9518,-0.951,-0.9503,-0.9501,-0.9496,-0.9494,-0.9494,-0.949,-0.9487,-0.9491,-0.9492,-0.9492,-0.9486,-0.9486,-0.9485,-0.9485,0,0,-0.957,-0.956,-0.9559,-0.9556,-0.9548,-0.9543,-0.9539,-0.9533,-0.9531,-0.9524,-0.9521,-0.9513,-0.9511,-0.9506,-0.9501,-0.9499,-0.9503,-0.9496,-0.9496,-0.9499,-0.9503,-0.9507,-0.9507,-0.95,-0.95,-0.95,-0.9504,0,-0.9569,-0.9561,-0.9556,-0.9551,-0.9547,-0.9542,-0.9539,-0.9533,-0.9529,-0.9525,-0.9521,-0.9515,-0.9512,-0.9509,-0.9508,-0.9503,-0.9504,-0.9502,-0.9498,-0.9498,-0.9501,-0.9508,-0.9511,-0.9515,-0.9505,-0.9505,-0.9505,0,-0.9565,-0.9561,-0.9556,-0.955,-0.9548,-0.9546,-0.9541,-0.9537,-0.9532,-0.9529,-0.9525,-0.9521,-0.9517,-0.9514,-0.951,-0.951,-0.9508,-0.9505,-0.9505,-0.9505,-0.9502,-0.9509,-0.9516,-0.9517,-0.9505,-0.9505,-0.9505,0,-0.9569,-0.9561,-0.9558,-0.9555,-0.9548,-0.9547,-0.9544,-0.9539,-0.9536,-0.9532,-0.9531,-0.9526,-0.9523,-0.952,-0.9515,-0.9513,-0.9512,-0.9508,-0.9511,-0.9511,-0.9511,-0.9511,-0.9519,-0.9508,-0.9508,-0.9508,-0.9508,0,-0.9568,-0.9565,-0.9559,-0.9557,-0.9555,-0.955,-0.9548,-0.9544,-0.954,-0.9538,-0.9533,-0.9531,-0.9524,-0.9522,-0.9518,-0.9517,-0.9515,-0.9513,-0.9512,-0.9514,-0.9515,-0.9513,-0.9513,-0.9508,-0.9508,-0.9508,-0.9508,0,-0.957,-0.9566,-0.9563,-0.9557,-0.9556,-0.9555,-0.955,-0.9549,-0.9546,-0.9543,-0.9542,-0.9537,-0.9534,-0.9529,-0.9524,-0.9521,-0.9521,-0.9519,-0.9523,-0.9523,-0.9526,-0.9527,-0.9534,-0.9536,-0.9523,-0.9523,-0.9523,0,-0.9571,-0.9569,-0.9564,-0.9563,-0.9561,-0.9558,-0.9557,-0.9552,-0.955,-0.9546,-0.9546,-0.9543,-0.954,-0.9536,-0.9532,-0.9529,-0.9527,-0.953,-0.9527,-0.953,-0.9529,-0.953,-0.9531,-0.9531,-0.9531,-0.9532,-0.9532,0,-0.9572,-0.9571,-0.9568,-0.9566,-0.9565,-0.9562,-0.956,-0.9559,-0.9554,-0.9553,-0.9551,-0.9549,-0.9546,-0.9544,-0.9541,-0.9538,-0.9534,-0.9533,-0.9534,-0.9536,-0.9539,-0.9539,-0.9527,-0.9533,-0.9533,-0.9533,-0.9532,-0.9532,-0.9574,-0.9574,-0.9571,-0.957,-0.9568,-0.9566,-0.9566,-0.9563,-0.9561,-0.9559,-0.9556,-0.9555,-0.9552,-0.9548,-0.9546,-0.9546,-0.9544,-0.9544,-0.9544,-0.9545,-0.9546,-0.9539,-0.9545,-0.9545,-0.9545,-0.9545,-0.9545,0,-0.9577,-0.9576,-0.9574,-0.9572,-0.9572,-0.9569,-0.9567,-0.9567,-0.9566,-0.9564,-0.9563,-0.9562,-0.956,-0.9557,-0.9555,-0.9556,-0.9554,-0.9556,-0.9556,-0.9556,-0.9547,-0.9548,-0.9557,-0.9557,-0.9557,-0.9557,-0.9557,-0.9557,-0.9578,-0.9578,-0.9577,-0.9576,-0.9575,-0.9575,-0.9574,-0.9573,-0.9572,-0.9571,-0.9571,-0.9569,-0.9567,-0.9566,-0.9565,-0.9564,-0.9564,-0.9566,-0.9565,-0.9557,-0.9556,-0.9555,-0.9555,-0.9566,-0.9566,-0.9574,-0.9574,-0.9574]}]]